Time,TemperatureF,DewpointF,PressureIn,WindDirection,WindDirectionDegrees,WindSpeedMPH,WindSpeedGustMPH,Humidity,HourlyPrecipIn,Conditions,Clouds,dailyrainin,SoftwareType,DateUTC
2013-08-22 00:02:00,71.6,50.3,29.80,NW,321,5.0,5.0,47,0.00,,,0.00,Wunderground v.1.15,2013-08-22 07:02:00,
2013-08-22 00:08:00,71.1,51.0,29.80,WNW,285,4.0,5.0,49,0.00,,,0.00,Wunderground v.1.15,2013-08-22 07:08:00,
2013-08-22 00:13:00,70.6,50.5,29.80,NW,315,4.0,6.0,49,0.00,,,0.00,Wunderground v.1.15,2013-08-22 07:13:00,
2013-08-22 00:19:00,70.0,51.0,29.80,WNW,282,3.0,6.0,51,0.00,,,0.00,Wunderground v.1.15,2013-08-22 07:19:00,
2013-08-22 00:25:00,70.0,51.0,29.81,NW,312,1.0,6.0,51,0.00,,,0.00,Wunderground v.1.15,2013-08-22 07:25:00,
2013-08-22 00:31:00,70.2,51.2,29.80,NW,318,2.0,5.0,51,0.00,,,0.00,Wunderground v.1.15,2013-08-22 07:31:00,
2013-08-22 00:37:00,70.0,51.0,29.80,NW,314,4.0,5.0,51,0.00,,,0.00,Wunderground v.1.15,2013-08-22 07:37:00,
2013-08-22 00:43:00,70.3,50.8,29.80,NNW,329,4.0,5.0,50,0.00,,,0.00,Wunderground v.1.15,2013-08-22 07:43:00,
2013-08-22 00:49:00,69.8,50.9,29.79,NW,319,4.0,6.0,51,0.00,,,0.00,Wunderground v.1.15,2013-08-22 07:49:00,
2013-08-22 00:55:00,69.7,50.8,29.79,NW,323,4.0,5.0,51,0.00,,,0.00,Wunderground v.1.15,2013-08-22 07:55:00,
2013-08-22 01:00:00,69.7,50.8,29.79,NW,321,4.0,4.0,51,0.00,,,0.00,Wunderground v.1.15,2013-08-22 08:00:00,
2013-08-22 01:05:00,69.8,50.3,29.80,WNW,295,4.0,4.0,50,0.00,,,0.00,Wunderground v.1.15,2013-08-22 08:05:00,
2013-08-22 01:11:00,69.4,50.5,29.79,WNW,294,2.0,2.0,51,0.00,,,0.00,Wunderground v.1.15,2013-08-22 08:11:00,
2013-08-22 01:17:00,69.3,50.4,29.80,NNW,328,3.0,5.0,51,0.00,,,0.00,Wunderground v.1.15,2013-08-22 08:17:00,
2013-08-22 01:23:00,69.3,49.9,29.80,NW,311,2.0,4.0,50,0.00,,,0.00,Wunderground v.1.15,2013-08-22 08:23:00,
2013-08-22 01:29:00,69.2,50.3,29.80,NW,304,2.0,4.0,51,0.00,,,0.00,Wunderground v.1.15,2013-08-22 08:29:00,
2013-08-22 01:35:00,69.1,50.7,29.80,WNW,293,2.0,3.0,52,0.00,,,0.00,Wunderground v.1.15,2013-08-22 08:35:00,
2013-08-22 01:41:00,68.7,50.9,29.79,WNW,289,1.0,1.0,53,0.00,,,0.00,Wunderground v.1.15,2013-08-22 08:41:00,
2013-08-22 01:47:00,68.5,50.7,29.79,NW,317,1.0,4.0,53,0.00,,,0.00,Wunderground v.1.15,2013-08-22 08:47:00,
2013-08-22 01:53:00,68.4,51.1,29.78,West,276,3.0,5.0,54,0.00,,,0.00,Wunderground v.1.15,2013-08-22 08:53:00,
2013-08-22 01:59:00,68.5,51.2,29.78,WNW,290,3.0,5.0,54,0.00,,,0.00,Wunderground v.1.15,2013-08-22 08:59:00,
2013-08-22 02:05:00,68.1,51.3,29.79,WNW,293,2.0,3.0,55,0.00,,,0.00,Wunderground v.1.15,2013-08-22 09:05:00,
2013-08-22 02:10:00,68.1,51.3,29.80,WNW,286,2.0,2.0,55,0.00,,,0.00,Wunderground v.1.15,2013-08-22 09:10:00,
2013-08-22 02:16:00,67.9,51.1,29.80,WNW,285,1.0,2.0,55,0.00,,,0.00,Wunderground v.1.15,2013-08-22 09:16:00,
2013-08-22 02:22:00,67.7,51.4,29.78,NW,314,1.0,5.0,56,0.00,,,0.00,Wunderground v.1.15,2013-08-22 09:22:00,
2013-08-22 02:28:00,67.7,51.4,29.78,WNW,297,3.0,5.0,56,0.00,,,0.00,Wunderground v.1.15,2013-08-22 09:28:00,
2013-08-22 02:34:00,67.3,51.5,29.78,WNW,283,2.0,3.0,57,0.00,,,0.00,Wunderground v.1.15,2013-08-22 09:34:00,
2013-08-22 02:40:00,67.0,51.7,29.79,WNW,285,1.0,2.0,58,0.00,,,0.00,Wunderground v.1.15,2013-08-22 09:40:00,
2013-08-22 02:46:00,67.0,51.7,29.78,NW,311,2.0,3.0,58,0.00,,,0.00,Wunderground v.1.15,2013-08-22 09:46:00,
2013-08-22 02:52:00,67.0,51.7,29.78,WNW,301,3.0,3.0,58,0.00,,,0.00,Wunderground v.1.15,2013-08-22 09:52:00,
2013-08-22 02:58:00,66.7,51.9,29.78,West,259,1.0,3.0,59,0.00,,,0.00,Wunderground v.1.15,2013-08-22 09:58:00,
2013-08-22 03:04:00,66.4,52.1,29.79,West,260,0.0,1.0,60,0.00,,,0.00,Wunderground v.1.15,2013-08-22 10:04:00,
2013-08-22 03:10:00,66.3,52.0,29.80,WSW,254,0.0,1.0,60,0.00,,,0.00,Wunderground v.1.15,2013-08-22 10:10:00,
2013-08-22 03:16:00,66.3,52.0,29.79,WSW,252,0.0,1.0,60,0.00,,,0.00,Wunderground v.1.15,2013-08-22 10:16:00,
2013-08-22 03:22:00,66.4,52.1,29.78,West,263,0.0,0.0,60,0.00,,,0.00,Wunderground v.1.15,2013-08-22 10:22:00,
2013-08-22 03:28:00,66.4,52.1,29.76,West,276,0.0,0.0,60,0.00,,,0.00,Wunderground v.1.15,2013-08-22 10:28:00,
2013-08-22 03:33:00,66.0,52.2,29.77,WNW,287,0.0,0.0,61,0.00,,,0.00,Wunderground v.1.15,2013-08-22 10:33:00,
2013-08-22 03:39:00,65.7,52.3,29.78,WNW,288,0.0,0.0,62,0.00,,,0.00,Wunderground v.1.15,2013-08-22 10:39:00,
2013-08-22 03:44:00,65.4,52.0,29.78,WNW,287,0.0,0.0,62,0.00,,,0.00,Wunderground v.1.15,2013-08-22 10:44:00,
2013-08-22 03:50:00,64.9,52.0,29.78,WSW,256,0.0,2.0,63,0.00,,,0.00,Wunderground v.1.15,2013-08-22 10:50:00,
2013-08-22 05:28:00,62.3,52.0,29.77,West,271,1.0,2.0,69,0.00,,,0.00,Wunderground v.1.15,2013-08-22 12:28:00,
2013-08-22 05:34:00,62.5,52.2,29.77,West,265,1.0,1.0,69,0.00,,,0.00,Wunderground v.1.15,2013-08-22 12:34:00,
2013-08-22 05:41:00,62.0,51.7,29.77,West,265,1.0,1.0,69,0.00,,,0.00,Wunderground v.1.15,2013-08-22 12:41:00,
2013-08-22 05:46:00,-999.9,-99.9,29.77,North,32767,-999.0,1.0,255,-99.99,,,0.00,Wunderground v.1.15,2013-08-22 12:46:00,
2013-08-22 05:52:00,-999.9,-99.9,29.77,North,32767,-999.0,0.0,255,-99.99,,,0.00,Wunderground v.1.15,2013-08-22 12:52:00,
2013-08-22 05:58:00,-999.9,-99.9,29.77,North,32767,-999.0,0.0,255,-99.99,,,0.00,Wunderground v.1.15,2013-08-22 12:58:00,
2013-08-22 06:00:00,-999.9,-99.9,29.77,North,32767,-999.0,0.0,255,-99.99,,,0.00,Wunderground v.1.15,2013-08-22 13:00:00,
2013-08-22 06:06:00,-999.9,-99.9,29.77,North,32767,-999.0,0.0,255,-99.99,,,0.00,Wunderground v.1.15,2013-08-22 13:06:00,
2013-08-22 06:11:00,-999.9,-99.9,29.76,North,32767,-999.0,0.0,255,-99.99,,,0.00,Wunderground v.1.15,2013-08-22 13:11:00,
2013-08-22 06:16:00,-999.9,-99.9,29.76,North,32767,-999.0,0.0,255,-99.99,,,0.00,Wunderground v.1.15,2013-08-22 13:16:00,
2013-08-22 06:22:00,-999.9,-99.9,29.77,North,32767,-999.0,0.0,255,-99.99,,,0.00,Wunderground v.1.15,2013-08-22 13:22:00,
2013-08-22 06:29:00,-999.9,-99.9,29.77,North,32767,-999.0,0.0,255,-99.99,,,0.00,Wunderground v.1.15,2013-08-22 13:29:00,
2013-08-22 06:34:00,-999.9,-99.9,29.77,North,32767,-999.0,0.0,255,-99.99,,,0.00,Wunderground v.1.15,2013-08-22 13:34:00,
2013-08-22 06:40:00,-999.9,-99.9,29.77,North,32767,-999.0,0.0,255,-99.99,,,0.00,Wunderground v.1.15,2013-08-22 13:40:00,
2013-08-22 06:45:00,-999.9,-99.9,29.77,North,32767,-999.0,0.0,255,-99.99,,,0.00,Wunderground v.1.15,2013-08-22 13:45:00,
2013-08-22 06:51:00,-999.9,-99.9,29.77,North,32767,-999.0,0.0,255,-99.99,,,0.00,Wunderground v.1.15,2013-08-22 13:51:00,
2013-08-22 06:56:00,62.4,52.1,29.77,SSW,212,0.0,0.0,69,0.00,,,0.00,Wunderground v.1.15,2013-08-22 13:56:00,
2013-08-22 07:02:00,62.5,52.2,29.77,SW,230,0.0,0.0,69,0.00,,,0.00,Wunderground v.1.15,2013-08-22 14:02:00,
2013-08-22 07:08:00,62.5,52.2,29.78,SW,215,1.0,5.0,69,0.00,,,0.00,Wunderground v.1.15,2013-08-22 14:08:00,
2013-08-22 07:14:00,62.3,52.0,29.78,SW,222,4.0,7.0,69,0.00,,,0.00,Wunderground v.1.15,2013-08-22 14:14:00,
2013-08-22 07:20:00,62.3,52.4,29.78,SW,233,5.0,5.0,70,0.00,,,0.00,Wunderground v.1.15,2013-08-22 14:20:00,
2013-08-22 07:26:00,62.4,52.5,29.78,SW,214,3.0,5.0,70,0.00,,,0.00,Wunderground v.1.15,2013-08-22 14:26:00,
2013-08-22 07:32:00,62.9,52.2,29.78,SW,229,5.0,8.0,68,0.00,,,0.00,Wunderground v.1.15,2013-08-22 14:32:00,
2013-08-22 07:38:00,63.3,51.7,29.78,SW,214,2.0,8.0,66,0.00,,,0.00,Wunderground v.1.15,2013-08-22 14:38:00,
2013-08-22 07:43:00,63.5,51.9,29.78,SW,215,0.0,1.0,66,0.00,,,0.00,Wunderground v.1.15,2013-08-22 14:43:00,
2013-08-22 07:49:00,63.9,51.5,29.79,SW,233,0.0,1.0,64,0.00,,,0.00,Wunderground v.1.15,2013-08-22 14:49:00,
2013-08-22 07:55:00,64.3,51.4,29.79,WSW,240,0.0,0.0,63,0.00,,,0.00,Wunderground v.1.15,2013-08-22 14:55:00,
2013-08-22 08:00:00,64.6,51.7,29.78,WSW,238,0.0,0.0,63,0.00,,,0.00,Wunderground v.1.15,2013-08-22 15:00:00,
2013-08-22 08:06:00,65.2,52.3,29.78,SW,227,0.0,0.0,63,0.00,,,0.00,Wunderground v.1.15,2013-08-22 15:06:00,
2013-08-22 08:11:00,65.9,52.1,29.78,SSW,209,0.0,0.0,61,0.00,,,0.00,Wunderground v.1.15,2013-08-22 15:11:00,
2013-08-22 08:17:00,66.7,52.8,29.78,SW,228,0.0,0.0,61,0.00,,,0.00,Wunderground v.1.15,2013-08-22 15:17:00,
2013-08-22 08:23:00,67.4,53.0,29.78,WSW,240,0.0,0.0,60,0.00,,,0.00,Wunderground v.1.15,2013-08-22 15:23:00,
2013-08-22 08:29:00,68.2,53.3,29.79,SW,236,0.0,0.0,59,0.00,,,0.00,Wunderground v.1.15,2013-08-22 15:29:00,
2013-08-22 08:35:00,68.7,53.3,29.78,SW,220,0.0,0.0,58,0.00,,,0.00,Wunderground v.1.15,2013-08-22 15:35:00,
2013-08-22 08:40:00,69.3,52.9,29.78,SW,219,0.0,0.0,56,0.00,,,0.00,Wunderground v.1.15,2013-08-22 15:40:00,
2013-08-22 08:46:00,69.8,52.9,29.79,SW,219,0.0,0.0,55,0.00,,,0.00,Wunderground v.1.15,2013-08-22 15:46:00,
2013-08-22 08:52:00,70.5,52.0,29.79,SW,231,0.0,0.0,52,0.00,,,0.00,Wunderground v.1.15,2013-08-22 15:52:00,
2013-08-22 08:58:00,71.5,52.4,29.78,SW,216,0.0,0.0,51,0.00,,,0.00,Wunderground v.1.15,2013-08-22 15:58:00,
2013-08-22 09:03:00,72.0,51.8,29.78,SSW,207,0.0,0.0,49,0.00,,,0.00,Wunderground v.1.15,2013-08-22 16:03:00,
2013-08-22 09:09:00,72.6,51.8,29.78,SW,223,0.0,0.0,48,0.00,,,0.00,Wunderground v.1.15,2013-08-22 16:09:00,
2013-08-22 09:15:00,72.8,51.4,29.78,SW,217,0.0,0.0,47,0.00,,,0.00,Wunderground v.1.15,2013-08-22 16:15:00,
2013-08-22 09:21:00,73.1,52.2,29.78,SW,214,0.0,0.0,48,0.00,,,0.00,Wunderground v.1.15,2013-08-22 16:21:00,
2013-08-22 09:27:00,73.6,52.1,29.78,SSW,204,0.0,0.0,47,0.00,,,0.00,Wunderground v.1.15,2013-08-22 16:27:00,
2013-08-22 09:33:00,73.9,51.8,29.77,SW,214,0.0,0.0,46,0.00,,,0.00,Wunderground v.1.15,2013-08-22 16:33:00,
2013-08-22 09:39:00,74.6,52.4,29.77,SW,233,0.0,0.0,46,0.00,,,0.00,Wunderground v.1.15,2013-08-22 16:39:00,
2013-08-22 09:44:00,75.4,51.3,29.77,WSW,255,0.0,0.0,43,0.00,,,0.00,Wunderground v.1.15,2013-08-22 16:44:00,
2013-08-22 09:50:00,75.9,50.5,29.77,NW,305,0.0,0.0,41,0.00,,,0.00,Wunderground v.1.15,2013-08-22 16:50:00,
2013-08-22 09:56:00,75.8,50.4,29.77,SW,224,0.0,0.0,41,0.00,,,0.00,Wunderground v.1.15,2013-08-22 16:56:00,
2013-08-22 10:02:00,76.5,51.0,29.77,South,191,0.0,0.0,41,0.00,,,0.00,Wunderground v.1.15,2013-08-22 17:02:00,
2013-08-22 10:08:00,76.9,50.7,29.77,South,173,0.0,0.0,40,0.00,,,0.00,Wunderground v.1.15,2013-08-22 17:08:00,
2013-08-22 10:14:00,77.1,50.9,29.77,ESE,116,0.0,0.0,40,0.00,,,0.00,Wunderground v.1.15,2013-08-22 17:14:00,
2013-08-22 10:20:00,78.0,50.3,29.76,SSE,159,0.0,0.0,38,0.00,,,0.00,Wunderground v.1.15,2013-08-22 17:20:00,
2013-08-22 10:25:00,78.3,50.6,29.76,SE,146,0.0,0.0,38,0.00,,,0.00,Wunderground v.1.15,2013-08-22 17:25:00,
2013-08-22 10:31:00,78.0,49.6,29.76,ESE,110,0.0,0.0,37,0.00,,,0.00,Wunderground v.1.15,2013-08-22 17:31:00,
2013-08-22 10:37:00,78.1,50.4,29.76,SSW,205,0.0,0.0,38,0.00,,,0.00,Wunderground v.1.15,2013-08-22 17:37:00,
2013-08-22 10:43:00,78.5,50.1,29.76,ESE,114,0.0,0.0,37,0.00,,,0.00,Wunderground v.1.15,2013-08-22 17:43:00,
2013-08-22 10:49:00,78.6,50.1,29.76,SSW,213,0.0,0.0,37,0.00,,,0.00,Wunderground v.1.15,2013-08-22 17:49:00,
2013-08-22 10:55:00,78.5,50.1,29.76,East,83,0.0,0.0,37,0.00,,,0.00,Wunderground v.1.15,2013-08-22 17:55:00,
2013-08-22 11:00:00,78.3,49.9,29.76,East,98,0.0,0.0,37,0.00,,,0.00,Wunderground v.1.15,2013-08-22 18:00:00,
2013-08-22 11:05:00,79.3,50.8,29.76,SW,229,0.0,0.0,37,0.00,,,0.00,Wunderground v.1.15,2013-08-22 18:05:00,
2013-08-22 11:11:00,79.9,49.8,29.75,ESE,108,0.0,0.0,35,0.00,,,0.00,Wunderground v.1.15,2013-08-22 18:11:00,
2013-08-22 11:17:00,79.8,49.7,29.75,East,98,0.0,0.0,35,0.00,,,0.00,Wunderground v.1.15,2013-08-22 18:17:00,
2013-08-22 11:23:00,79.9,49.8,29.75,East,97,0.0,0.0,35,0.00,,,0.00,Wunderground v.1.15,2013-08-22 18:23:00,
2013-08-22 11:29:00,80.0,49.9,29.75,SE,127,0.0,0.0,35,0.00,,,0.00,Wunderground v.1.15,2013-08-22 18:29:00,
2013-08-22 11:34:00,80.4,49.5,29.75,East,96,0.0,0.0,34,0.00,,,0.00,Wunderground v.1.15,2013-08-22 18:34:00,
2013-08-22 11:40:00,80.5,49.5,29.74,ESE,110,0.0,0.0,34,0.00,,,0.00,Wunderground v.1.15,2013-08-22 18:40:00,
2013-08-22 11:46:00,81.6,49.7,29.74,ESE,111,0.0,0.0,33,0.00,,,0.00,Wunderground v.1.15,2013-08-22 18:46:00,
2013-08-22 11:52:00,81.0,49.2,29.74,SE,124,0.0,0.0,33,0.00,,,0.00,Wunderground v.1.15,2013-08-22 18:52:00,
2013-08-22 11:58:00,81.4,49.5,29.74,East,86,0.0,0.0,33,0.00,,,0.00,Wunderground v.1.15,2013-08-22 18:58:00,
2013-08-22 12:04:00,81.5,49.6,29.73,SE,138,0.0,0.0,33,0.00,,,0.00,Wunderground v.1.15,2013-08-22 19:04:00,
2013-08-22 12:10:00,81.9,49.1,29.73,ESE,123,0.0,0.0,32,0.00,,,0.00,Wunderground v.1.15,2013-08-22 19:10:00,
2013-08-22 12:16:00,82.8,49.1,29.73,SW,231,0.0,0.0,31,0.00,,,0.00,Wunderground v.1.15,2013-08-22 19:16:00,
2013-08-22 12:21:00,83.3,48.6,29.73,SSE,160,0.0,0.0,30,0.00,,,0.00,Wunderground v.1.15,2013-08-22 19:21:00,
2013-08-22 12:27:00,83.8,49.1,29.72,ESE,121,0.0,0.0,30,0.00,,,0.00,Wunderground v.1.15,2013-08-22 19:27:00,
2013-08-22 12:33:00,83.7,49.9,29.72,WSW,250,0.0,0.0,31,0.00,,,0.00,Wunderground v.1.15,2013-08-22 19:33:00,
2013-08-22 12:39:00,83.7,49.0,29.72,East,98,0.0,0.0,30,0.00,,,0.00,Wunderground v.1.15,2013-08-22 19:39:00,
2013-08-22 12:45:00,84.1,48.4,29.72,West,271,0.0,0.0,29,0.00,,,0.00,Wunderground v.1.15,2013-08-22 19:45:00,
2013-08-22 12:50:00,84.6,48.8,29.72,SW,230,0.0,0.0,29,0.00,,,0.00,Wunderground v.1.15,2013-08-22 19:50:00,
2013-08-22 12:56:00,85.6,47.8,29.71,SE,141,0.0,0.0,27,0.00,,,0.00,Wunderground v.1.15,2013-08-22 19:56:00,
2013-08-22 13:02:00,85.9,48.0,29.71,WSW,239,0.0,0.0,27,0.00,,,0.00,Wunderground v.1.15,2013-08-22 20:02:00,
2013-08-22 13:08:00,86.1,48.2,29.71,ENE,58,0.0,0.0,27,0.00,,,0.00,Wunderground v.1.15,2013-08-22 20:08:00,
2013-08-22 13:14:00,85.7,47.9,29.71,West,272,0.0,0.0,27,0.00,,,0.00,Wunderground v.1.15,2013-08-22 20:14:00,
2013-08-22 13:20:00,85.4,46.6,29.70,South,176,0.0,0.0,26,0.00,,,0.00,Wunderground v.1.15,2013-08-22 20:20:00,
2013-08-22 13:26:00,85.7,46.9,29.70,SSW,205,0.0,0.0,26,0.00,,,0.00,Wunderground v.1.15,2013-08-22 20:26:00,
2013-08-22 13:32:00,85.4,46.6,29.70,WSW,244,0.0,0.0,26,0.00,,,0.00,Wunderground v.1.15,2013-08-22 20:32:00,
2013-08-22 13:38:00,86.3,46.3,29.70,WSW,251,0.0,0.0,25,0.00,,,0.00,Wunderground v.1.15,2013-08-22 20:38:00,
2013-08-22 13:44:00,87.0,45.8,29.69,SSE,155,0.0,0.0,24,0.00,,,0.00,Wunderground v.1.15,2013-08-22 20:44:00,
2013-08-22 13:50:00,87.0,45.8,29.69,SSE,153,0.0,0.0,24,0.00,,,0.00,Wunderground v.1.15,2013-08-22 20:50:00,
2013-08-22 13:55:00,86.8,44.6,29.69,NW,307,0.0,0.0,23,0.00,,,0.00,Wunderground v.1.15,2013-08-22 20:55:00,
2013-08-22 14:00:00,87.0,45.8,29.69,SW,217,0.0,0.0,24,0.00,,,0.00,Wunderground v.1.15,2013-08-22 21:00:00,
2013-08-22 14:06:00,87.1,44.8,29.69,ESE,102,0.0,0.0,23,0.00,,,0.00,Wunderground v.1.15,2013-08-22 21:06:00,
2013-08-22 14:12:00,85.6,44.7,29.69,SSE,148,0.0,0.0,24,0.00,,,0.00,Wunderground v.1.15,2013-08-22 21:12:00,
2013-08-22 14:17:00,85.7,43.6,29.68,SE,138,0.0,0.0,23,0.00,,,0.00,Wunderground v.1.15,2013-08-22 21:17:00,
2013-08-22 14:23:00,85.6,43.5,29.68,ENE,58,0.0,0.0,23,0.00,,,0.00,Wunderground v.1.15,2013-08-22 21:23:00,
2013-08-22 14:29:00,85.4,43.4,29.68,ENE,65,0.0,0.0,23,0.00,,,0.00,Wunderground v.1.15,2013-08-22 21:29:00,
2013-08-22 14:35:00,85.7,41.3,29.68,SW,224,0.0,0.0,21,0.00,,,0.00,Wunderground v.1.15,2013-08-22 21:35:00,
2013-08-22 14:41:00,85.7,41.3,29.67,West,269,0.0,0.0,21,0.00,,,0.00,Wunderground v.1.15,2013-08-22 21:41:00,
2013-08-22 14:47:00,86.2,41.7,29.67,North,353,0.0,0.0,21,0.00,,,0.00,Wunderground v.1.15,2013-08-22 21:47:00,
2013-08-22 14:53:00,85.9,42.6,29.67,NE,36,0.0,0.0,22,0.00,,,0.00,Wunderground v.1.15,2013-08-22 21:53:00,
2013-08-22 14:59:00,85.9,41.4,29.67,NNW,328,0.0,0.0,21,0.00,,,0.00,Wunderground v.1.15,2013-08-22 21:59:00,
2013-08-22 15:04:00,85.9,41.4,29.66,ESE,113,0.0,0.0,21,0.00,,,0.00,Wunderground v.1.15,2013-08-22 22:04:00,
2013-08-22 15:10:00,86.5,41.9,29.66,NW,316,0.0,0.0,21,0.00,,,0.00,Wunderground v.1.15,2013-08-22 22:10:00,
2013-08-22 15:15:00,86.7,40.8,29.66,NNW,330,0.0,0.0,20,0.00,,,0.00,Wunderground v.1.15,2013-08-22 22:15:00,
2013-08-22 15:21:00,86.6,42.0,29.66,North,356,0.0,0.0,21,0.00,,,0.00,Wunderground v.1.15,2013-08-22 22:21:00,
2013-08-22 15:27:00,87.0,41.1,29.66,NW,316,0.0,0.0,20,0.00,,,0.00,Wunderground v.1.15,2013-08-22 22:27:00,
2013-08-22 15:33:00,87.2,41.2,29.65,NW,314,0.0,0.0,20,0.00,,,0.00,Wunderground v.1.15,2013-08-22 22:33:00,
2013-08-22 15:39:00,88.1,39.3,29.65,SSE,156,1.0,6.0,18,0.00,,,0.00,Wunderground v.1.15,2013-08-22 22:39:00,
2013-08-22 15:45:00,87.5,38.8,29.65,West,266,4.0,9.0,18,0.00,,,0.00,Wunderground v.1.15,2013-08-22 22:45:00,
2013-08-22 15:50:00,87.0,39.7,29.65,West,266,7.0,7.0,19,0.00,,,0.00,Wunderground v.1.15,2013-08-22 22:50:00,
2013-08-22 15:56:00,87.3,38.6,29.65,WSW,252,2.0,8.0,18,0.00,,,0.00,Wunderground v.1.15,2013-08-22 22:56:00,
2013-08-22 16:02:00,87.0,39.7,29.64,WSW,253,2.0,2.0,19,0.00,,,0.00,Wunderground v.1.15,2013-08-22 23:02:00,
2013-08-22 16:08:00,87.2,39.9,29.64,SW,229,1.0,10.0,19,0.00,,,0.00,Wunderground v.1.15,2013-08-22 23:08:00,
2013-08-22 16:14:00,87.4,38.7,29.65,WSW,244,7.0,17.0,18,0.00,,,0.00,Wunderground v.1.15,2013-08-22 23:14:00,
2013-08-22 16:20:00,87.5,38.8,29.64,WNW,291,8.0,8.0,18,0.00,,,0.00,Wunderground v.1.15,2013-08-22 23:20:00,
2013-08-22 16:26:00,87.2,38.5,29.64,SW,235,1.0,8.0,18,0.00,,,0.00,Wunderground v.1.15,2013-08-22 23:26:00,
2013-08-22 16:32:00,87.3,37.1,29.65,WSW,256,4.0,17.0,17,0.00,,,0.00,Wunderground v.1.15,2013-08-22 23:32:00,
2013-08-22 16:38:00,87.7,35.9,29.64,WSW,240,10.0,17.0,16,0.00,,,0.00,Wunderground v.1.15,2013-08-22 23:38:00,
2013-08-22 16:43:00,87.6,34.2,29.64,WSW,252,5.0,9.0,15,0.00,,,0.00,Wunderground v.1.15,2013-08-22 23:43:00,
2013-08-22 16:49:00,87.0,30.2,29.64,WSW,252,1.0,21.0,13,0.00,,,0.00,Wunderground v.1.15,2013-08-22 23:49:00,
2013-08-22 16:55:00,86.6,29.9,29.65,WSW,253,12.0,23.0,13,0.00,,,0.00,Wunderground v.1.15,2013-08-22 23:55:00,
2013-08-22 17:00:00,86.4,29.7,29.65,WSW,248,7.0,7.0,13,0.00,,,0.00,Wunderground v.1.15,2013-08-23 00:00:00,
2013-08-22 17:06:00,86.5,31.6,29.64,West,269,0.0,7.0,14,0.00,,,0.00,Wunderground v.1.15,2013-08-23 00:06:00,
2013-08-22 17:12:00,86.3,29.6,29.64,WSW,257,0.0,0.0,13,0.00,,,0.00,Wunderground v.1.15,2013-08-23 00:12:00,
2013-08-22 17:17:00,86.1,29.5,29.64,WSW,251,0.0,0.0,13,0.00,,,0.00,Wunderground v.1.15,2013-08-23 00:17:00,
2013-08-22 17:23:00,85.9,29.3,29.64,WSW,245,0.0,0.0,13,0.00,,,0.00,Wunderground v.1.15,2013-08-23 00:23:00,
2013-08-22 17:29:00,85.6,30.9,29.64,West,262,0.0,0.0,14,0.00,,,0.00,Wunderground v.1.15,2013-08-23 00:29:00,
2013-08-22 17:35:00,85.5,30.8,29.64,WSW,252,0.0,0.0,14,0.00,,,0.00,Wunderground v.1.15,2013-08-23 00:35:00,
2013-08-22 17:41:00,85.2,32.3,29.64,WSW,245,4.0,19.0,15,0.00,,,0.00,Wunderground v.1.15,2013-08-23 00:41:00,
2013-08-22 17:47:00,85.0,32.2,29.63,SW,226,13.0,19.0,15,0.00,,,0.00,Wunderground v.1.15,2013-08-23 00:47:00,
2013-08-22 17:53:00,84.8,32.0,29.63,WSW,244,14.0,16.0,15,0.00,,,0.00,Wunderground v.1.15,2013-08-23 00:53:00,
2013-08-22 17:59:00,84.6,31.8,29.63,WSW,245,14.0,16.0,15,0.00,,,0.00,Wunderground v.1.15,2013-08-23 00:59:00,
2013-08-22 18:05:00,84.5,33.4,29.63,WSW,254,13.0,15.0,16,0.00,,,0.00,Wunderground v.1.15,2013-08-23 01:05:00,
2013-08-22 18:11:00,84.5,33.4,29.63,WSW,242,10.0,11.0,16,0.00,,,0.00,Wunderground v.1.15,2013-08-23 01:11:00,
2013-08-22 18:17:00,84.3,33.2,29.63,WSW,251,4.0,12.0,16,0.00,,,0.00,Wunderground v.1.15,2013-08-23 01:17:00,
2013-08-22 18:23:00,84.1,33.0,29.63,WSW,250,4.0,4.0,16,0.00,,,0.00,Wunderground v.1.15,2013-08-23 01:23:00,
2013-08-22 18:28:00,84.0,33.0,29.63,WSW,246,2.0,4.0,16,0.00,,,0.00,Wunderground v.1.15,2013-08-23 01:28:00,
2013-08-22 18:34:00,83.7,34.2,29.63,WSW,257,0.0,0.0,17,0.00,,,0.00,Wunderground v.1.15,2013-08-23 01:34:00,
2013-08-22 18:40:00,83.6,35.6,29.63,WNW,282,2.0,2.0,18,0.00,,,0.00,Wunderground v.1.15,2013-08-23 01:40:00,
2013-08-22 18:46:00,83.3,35.4,29.63,West,269,4.0,15.0,18,0.00,,,0.00,Wunderground v.1.15,2013-08-23 01:46:00,
2013-08-22 18:51:00,83.0,36.5,29.63,West,270,2.0,2.0,19,0.00,,,0.00,Wunderground v.1.15,2013-08-23 01:51:00,
2013-08-22 18:57:00,82.8,36.3,29.64,WNW,290,0.0,2.0,19,0.00,,,0.00,Wunderground v.1.15,2013-08-23 01:57:00,
2013-08-22 19:03:00,82.4,36.0,29.64,West,261,0.0,0.0,19,0.00,,,0.00,Wunderground v.1.15,2013-08-23 02:03:00,
2013-08-22 19:09:00,82.1,37.0,29.64,WNW,284,0.0,0.0,20,0.00,,,0.00,Wunderground v.1.15,2013-08-23 02:09:00,
2013-08-22 19:15:00,81.5,36.5,29.64,West,271,0.0,0.0,20,0.00,,,0.00,Wunderground v.1.15,2013-08-23 02:15:00,
2013-08-22 19:21:00,81.3,37.6,29.64,WSW,250,0.0,0.0,21,0.00,,,0.00,Wunderground v.1.15,2013-08-23 02:21:00,
2013-08-22 19:27:00,81.0,37.4,29.65,West,259,0.0,0.0,21,0.00,,,0.00,Wunderground v.1.15,2013-08-23 02:27:00,
2013-08-22 19:33:00,81.0,37.4,29.65,WSW,257,0.0,0.0,21,0.00,,,0.00,Wunderground v.1.15,2013-08-23 02:33:00,
2013-08-22 19:39:00,80.8,37.2,29.65,West,272,0.0,0.0,21,0.00,,,0.00,Wunderground v.1.15,2013-08-23 02:39:00,
2013-08-22 19:45:00,80.5,38.1,29.65,West,263,0.0,8.0,22,0.00,,,0.00,Wunderground v.1.15,2013-08-23 02:45:00,
2013-08-22 19:50:00,80.1,37.8,29.65,West,266,4.0,9.0,22,0.00,,,0.00,Wunderground v.1.15,2013-08-23 02:50:00,
2013-08-22 19:56:00,79.9,37.6,29.66,WSW,258,8.0,10.0,22,0.00,,,0.00,Wunderground v.1.15,2013-08-23 02:56:00,
2013-08-22 20:01:00,80.1,36.6,29.66,West,279,4.0,5.0,21,0.00,,,0.00,Wunderground v.1.15,2013-08-23 03:01:00,
2013-08-22 20:07:00,80.1,37.8,29.66,West,264,0.0,5.0,22,0.00,,,0.00,Wunderground v.1.15,2013-08-23 03:07:00,
2013-08-22 20:13:00,80.2,36.7,29.66,West,274,0.0,0.0,21,0.00,,,0.00,Wunderground v.1.15,2013-08-23 03:13:00,
2013-08-22 20:19:00,79.9,37.6,29.66,West,266,0.0,0.0,22,0.00,,,0.00,Wunderground v.1.15,2013-08-23 03:19:00,
2013-08-22 20:25:00,79.7,37.5,29.66,West,261,0.0,0.0,22,0.00,,,0.00,Wunderground v.1.15,2013-08-23 03:25:00,
2013-08-22 20:31:00,79.6,37.4,29.67,West,266,0.0,0.0,22,0.00,,,0.00,Wunderground v.1.15,2013-08-23 03:31:00,
2013-08-22 20:37:00,79.3,38.3,29.67,West,274,0.0,0.0,23,0.00,,,0.00,Wunderground v.1.15,2013-08-23 03:37:00,
2013-08-22 20:43:00,78.9,37.9,29.67,West,274,0.0,0.0,23,0.00,,,0.00,Wunderground v.1.15,2013-08-23 03:43:00,
2013-08-22 20:49:00,78.0,38.3,29.67,West,278,0.0,0.0,24,0.00,,,0.00,Wunderground v.1.15,2013-08-23 03:49:00,
2013-08-22 20:55:00,77.5,38.9,29.68,WNW,295,0.0,0.0,25,0.00,,,0.00,Wunderground v.1.15,2013-08-23 03:55:00,
2013-08-22 21:00:00,77.3,38.7,29.68,West,264,1.0,1.0,25,0.00,,,0.00,Wunderground v.1.15,2013-08-23 04:00:00,
2013-08-22 21:01:00,77.3,38.7,29.68,WNW,297,1.0,3.0,25,0.00,,,0.00,Wunderground v.1.15,2013-08-23 04:01:00,
2013-08-22 21:02:00,77.3,38.7,29.68,West,267,1.0,3.0,25,0.00,,,0.00,Wunderground v.1.15,2013-08-23 04:02:00,
2013-08-22 21:04:00,77.2,38.6,29.68,West,266,1.0,3.0,25,0.00,,,0.00,Wunderground v.1.15,2013-08-23 04:04:00,
2013-08-22 21:05:00,77.1,38.6,29.68,West,272,1.0,5.0,25,0.00,,,0.00,Wunderground v.1.15,2013-08-23 04:05:00,
2013-08-22 21:10:00,77.1,38.6,29.68,West,268,2.0,2.0,25,0.00,,,0.00,Wunderground v.1.15,2013-08-23 04:10:00,
2013-08-22 21:15:00,77.1,38.6,29.68,West,262,2.0,3.0,25,0.00,,,0.00,Wunderground v.1.15,2013-08-23 04:15:00,
2013-08-22 21:21:00,76.4,39.0,29.68,West,271,2.0,3.0,26,0.00,,,0.00,Wunderground v.1.15,2013-08-23 04:21:00,
2013-08-22 21:27:00,76.0,38.6,29.68,WSW,257,2.0,5.0,26,0.00,,,0.00,Wunderground v.1.15,2013-08-23 04:27:00,
2013-08-22 21:33:00,75.4,39.1,29.68,West,262,3.0,3.0,27,0.00,,,0.00,Wunderground v.1.15,2013-08-23 04:33:00,
2013-08-22 21:39:00,76.1,38.7,29.68,WNW,284,3.0,5.0,26,0.00,,,0.00,Wunderground v.1.15,2013-08-23 04:39:00,
2013-08-22 21:45:00,76.3,37.9,29.68,WSW,248,4.0,7.0,25,0.00,,,0.00,Wunderground v.1.15,2013-08-23 04:45:00,
2013-08-22 21:51:00,76.5,38.0,29.69,West,263,5.0,7.0,25,0.00,,,0.00,Wunderground v.1.15,2013-08-23 04:51:00,
2013-08-22 21:56:00,76.4,38.0,29.68,West,278,5.0,7.0,25,0.00,,,0.00,Wunderground v.1.15,2013-08-23 04:56:00,
2013-08-22 22:02:00,76.4,38.0,29.69,West,276,4.0,4.0,25,0.00,,,0.00,Wunderground v.1.15,2013-08-23 05:02:00,
2013-08-22 22:08:00,76.0,37.6,29.69,WNW,295,3.0,4.0,25,0.00,,,0.00,Wunderground v.1.15,2013-08-23 05:08:00,
2013-08-22 22:14:00,75.4,38.1,29.69,WNW,295,1.0,3.0,26,0.00,,,0.00,Wunderground v.1.15,2013-08-23 05:14:00,
2013-08-22 22:20:00,75.2,37.9,29.69,West,277,0.0,0.0,26,0.00,,,0.00,Wunderground v.1.15,2013-08-23 05:20:00,
2013-08-22 22:26:00,74.4,38.2,29.69,NW,304,0.0,0.0,27,0.00,,,0.00,Wunderground v.1.15,2013-08-23 05:26:00,
2013-08-22 22:32:00,74.1,38.0,29.69,NW,314,1.0,6.0,27,0.00,,,0.00,Wunderground v.1.15,2013-08-23 05:32:00,
2013-08-22 22:38:00,74.0,38.8,29.70,West,272,2.0,6.0,28,0.00,,,0.00,Wunderground v.1.15,2013-08-23 05:38:00,
2013-08-22 22:44:00,73.4,38.3,29.70,WNW,300,1.0,3.0,28,0.00,,,0.00,Wunderground v.1.15,2013-08-23 05:44:00,
2013-08-22 22:50:00,73.1,38.9,29.70,WNW,290,1.0,1.0,29,0.00,,,0.00,Wunderground v.1.15,2013-08-23 05:50:00,
2013-08-22 22:55:00,73.0,38.9,29.70,WNW,297,0.0,2.0,29,0.00,,,0.00,Wunderground v.1.15,2013-08-23 05:55:00,
2013-08-22 23:00:00,73.0,38.9,29.71,WNW,288,1.0,1.0,29,0.00,,,0.00,Wunderground v.1.15,2013-08-23 06:00:00,
2013-08-22 23:06:00,72.5,39.3,29.71,West,280,0.0,1.0,30,0.00,,,0.00,Wunderground v.1.15,2013-08-23 06:06:00,
2013-08-22 23:11:00,71.9,38.8,29.71,WNW,282,1.0,2.0,30,0.00,,,0.00,Wunderground v.1.15,2013-08-23 06:11:00,
2013-08-22 23:17:00,71.6,38.5,29.71,West,277,1.0,2.0,30,0.00,,,0.00,Wunderground v.1.15,2013-08-23 06:17:00,
2013-08-22 23:23:00,71.9,38.8,29.71,NW,311,2.0,6.0,30,0.00,,,0.00,Wunderground v.1.15,2013-08-23 06:23:00,
2013-08-22 23:29:00,71.9,38.8,29.71,West,279,2.0,6.0,30,0.00,,,0.00,Wunderground v.1.15,2013-08-23 06:29:00,
2013-08-22 23:35:00,72.1,38.9,29.71,West,273,4.0,8.0,30,0.00,,,0.00,Wunderground v.1.15,2013-08-23 06:35:00,
2013-08-22 23:41:00,72.4,38.3,29.71,West,269,5.0,6.0,29,0.00,,,0.00,Wunderground v.1.15,2013-08-23 06:41:00,
2013-08-22 23:47:00,72.0,38.9,29.71,NW,316,3.0,6.0,30,0.00,,,0.00,Wunderground v.1.15,2013-08-23 06:47:00,
2013-08-22 23:53:00,70.9,38.7,29.72,NW,308,3.0,4.0,31,0.00,,,0.00,Wunderground v.1.15,2013-08-23 06:53:00,
2013-08-22 23:59:00,70.4,39.1,29.72,WNW,295,3.0,4.0,32,0.00,,,0.00,Wunderground v.1.15,2013-08-23 06:59:00,